N829D KGAO-KVYS

Flight info

Callsign N829D
Flight time 2h 11m
Altitude 45000
Route ESSEN MCGEE CLARK DUEAS RAILS QUOTE JITSA
Aircraft C750/M-SBDE3FGHRWXY/S

Departure

Time 2026-05-05 01:53
Airport South Lafourche Leonard Miller Jr Airport (KGAO)

Arrival

Time 2026-05-05 04:05
Airport Illinois Valley Regional Airport Walter A Duncan Field (KVYS)
Time Latitude Longitude Altitude Speed Heading
2026-05-05 01:49 29.44879 -90.26104 5 ft 0 kts 180°
2026-05-05 01:52 29.44813 -90.26104 5 ft 47 kts 180°
2026-05-05 01:53 29.44089 -90.26105 20 ft 145 kts 179°
2026-05-05 01:53 29.43012 -90.26168 477 ft 164 kts 182°
2026-05-05 01:53 29.41800 -90.26046 932 ft 188 kts 159°
2026-05-05 01:53 29.40772 -90.25023 1386 ft 205 kts 126°
2026-05-05 01:54 29.40317 -90.23574 1831 ft 209 kts 95°
2026-05-05 01:54 29.40603 -90.21909 2259 ft 217 kts 65°
2026-05-05 01:54 29.41681 -90.20685 2692 ft 231 kts 32°
2026-05-05 01:54 29.43348 -90.20247 3091 ft 264 kts
2026-05-05 01:55 29.45223 -90.20267 4057 ft 270 kts 358°
2026-05-05 01:55 29.47106 -90.20279 5237 ft 271 kts
2026-05-05 01:55 29.49015 -90.20196 6229 ft 277 kts
2026-05-05 01:55 29.50931 -90.20109 7216 ft 281 kts
2026-05-05 01:56 29.52895 -90.20052 8309 ft 284 kts 359°
2026-05-05 01:56 29.54893 -90.20001 9340 ft 290 kts 359°
2026-05-05 01:56 29.56932 -90.19936 10283 ft 296 kts 359°
2026-05-05 01:56 29.59075 -90.19867 10676 ft 321 kts 359°
2026-05-05 01:57 29.61404 -90.19798 10859 ft 349 kts 358°
2026-05-05 01:57 29.63886 -90.19719 11451 ft 359 kts 359°
2026-05-05 01:57 29.66385 -90.19632 12365 ft 359 kts 358°
2026-05-05 01:57 29.68896 -90.19553 13144 ft 362 kts 357°
2026-05-05 01:58 29.71421 -90.19478 13951 ft 364 kts 357°
2026-05-05 01:58 29.73958 -90.19397 14737 ft 366 kts 357°
2026-05-05 01:58 29.76511 -90.19313 15467 ft 368 kts 356°
2026-05-05 01:58 29.79078 -90.19232 16228 ft 370 kts 356°
2026-05-05 01:59 29.81629 -90.19154 16979 ft 372 kts 356°
2026-05-05 01:59 29.84223 -90.19103 17724 ft 373 kts 354°
2026-05-05 01:59 29.86819 -90.19200 18490 ft 374 kts 352°
2026-05-05 01:59 29.89431 -90.19317 19220 ft 378 kts 352°
2026-05-05 02:00 29.92076 -90.19414 19923 ft 382 kts 352°
2026-05-05 02:00 29.94753 -90.19502 20643 ft 386 kts 352°
2026-05-05 02:00 29.96533 -90.19566 21120 ft 388 kts 352°
2026-05-05 02:00 30.00143 -90.19707 22021 ft 394 kts 352°
2026-05-05 02:01 30.02905 -90.19809 22684 ft 399 kts 352°
2026-05-05 02:01 30.05687 -90.19910 23363 ft 402 kts 351°
2026-05-05 02:01 30.07592 -90.19980 23811 ft 405 kts 351°
2026-05-05 02:01 30.10424 -90.20086 24426 ft 410 kts 351°
2026-05-05 02:02 30.13248 -90.20191 25134 ft 411 kts 351°
2026-05-05 02:02 30.16140 -90.20295 25903 ft 411 kts 351°
2026-05-05 02:02 30.18998 -90.20402 26619 ft 411 kts 350°
2026-05-05 02:02 30.21815 -90.20508 27301 ft 411 kts 350°
2026-05-05 02:03 30.24682 -90.20614 28034 ft 411 kts 350°
2026-05-05 02:03 30.27540 -90.20719 28679 ft 412 kts 350°
2026-05-05 02:03 30.30407 -90.20827 29348 ft 412 kts 349°
2026-05-05 02:03 30.33274 -90.20934 29977 ft 412 kts 349°
2026-05-05 02:04 30.36151 -90.21044 30481 ft 415 kts 349°
2026-05-05 02:04 30.39038 -90.21149 30989 ft 416 kts 349°
2026-05-05 02:04 30.41920 -90.21255 31692 ft 412 kts 349°
2026-05-05 02:04 30.44777 -90.21360 32443 ft 408 kts 349°
2026-05-05 02:05 30.47597 -90.21464 33165 ft 403 kts 348°
2026-05-05 02:05 30.50399 -90.21571 33821 ft 401 kts 348°
2026-05-05 02:05 30.53176 -90.21675 34502 ft 398 kts 348°
2026-05-05 02:05 30.55897 -90.21776 35167 ft 395 kts 348°
2026-05-05 02:06 30.58673 -90.21881 35783 ft 393 kts 347°
2026-05-05 02:06 30.61365 -90.21982 36359 ft 392 kts 348°
2026-05-05 02:06 30.64093 -90.22084 36883 ft 392 kts 347°
2026-05-05 02:06 30.66816 -90.22187 37467 ft 390 kts 347°
2026-05-05 02:07 30.69522 -90.22288 38117 ft 387 kts 347°
2026-05-05 02:07 30.72204 -90.22387 38744 ft 384 kts 347°
2026-05-05 02:07 30.74872 -90.22488 39328 ft 382 kts 347°
2026-05-05 02:07 30.77521 -90.22589 39869 ft 380 kts 347°
2026-05-05 02:08 30.80169 -90.22691 40256 ft 382 kts 347°
2026-05-05 02:08 30.82838 -90.22793 40630 ft 384 kts 347°
2026-05-05 02:08 30.85517 -90.22892 41055 ft 385 kts 347°
2026-05-05 02:08 30.88202 -90.22991 41475 ft 386 kts 347°
2026-05-05 02:09 30.90891 -90.23095 41784 ft 388 kts 347°
2026-05-05 02:09 30.93601 -90.23198 42167 ft 389 kts 347°
2026-05-05 02:09 30.96270 -90.23297 42534 ft 390 kts 347°
2026-05-05 02:09 30.98996 -90.23400 42852 ft 392 kts 347°
2026-05-05 02:10 31.01730 -90.23504 43187 ft 393 kts 347°
2026-05-05 02:10 31.04467 -90.23607 43531 ft 394 kts 346°
2026-05-05 02:10 31.07218 -90.23712 43803 ft 396 kts 346°
2026-05-05 02:10 31.09974 -90.23816 44104 ft 398 kts 346°
2026-05-05 02:11 31.12752 -90.23921 44417 ft 399 kts 347°
2026-05-05 02:11 31.15538 -90.24027 44662 ft 401 kts 347°
2026-05-05 02:11 31.18313 -90.24134 44879 ft 404 kts 347°
2026-05-05 02:11 31.21174 -90.24243 45067 ft 409 kts 347°
2026-05-05 02:12 31.29937 -90.24578 45064 ft 433 kts 348°
2026-05-05 02:13 31.36066 -90.24810 45072 ft 447 kts 348°
2026-05-05 02:13 31.42368 -90.25049 45043 ft 458 kts 348°
2026-05-05 02:14 31.48809 -90.25293 45037 ft 467 kts 348°
2026-05-05 02:14 31.55354 -90.25543 45027 ft 472 kts 349°
2026-05-05 02:15 31.61912 -90.25793 45020 ft 476 kts 349°
2026-05-05 02:15 31.68559 -90.26047 45014 ft 478 kts 349°
2026-05-05 02:16 31.75271 -90.25845 45009 ft 488 kts 356°
2026-05-05 02:16 31.82033 -90.25074 45005 ft 488 kts 355°
2026-05-05 02:17 31.88797 -90.24324 45008 ft 488 kts 356°
2026-05-05 02:17 31.95563 -90.23549 44994 ft 488 kts 355°
2026-05-05 02:18 32.02287 -90.22797 44992 ft 488 kts 356°
2026-05-05 02:18 32.09051 -90.22026 44989 ft 488 kts 356°
2026-05-05 02:19 32.15817 -90.21262 44976 ft 488 kts 356°
2026-05-05 02:19 32.22586 -90.20491 44974 ft 488 kts 356°
2026-05-05 02:20 32.29358 -90.19722 44976 ft 489 kts 356°
2026-05-05 02:20 32.36142 -90.18949 44976 ft 489 kts 356°
2026-05-05 02:21 32.42885 -90.18180 44979 ft 489 kts 356°
2026-05-05 02:21 32.49657 -90.17406 44976 ft 489 kts 356°
2026-05-05 02:22 32.56452 -90.16629 44975 ft 491 kts 356°
2026-05-05 02:22 32.63237 -90.15850 44975 ft 489 kts 356°
2026-05-05 02:23 32.70028 -90.15072 44977 ft 490 kts 356°
2026-05-05 02:23 32.76822 -90.14291 44965 ft 491 kts 356°
2026-05-05 02:24 32.83570 -90.13514 44968 ft 491 kts 356°
2026-05-05 02:24 32.90390 -90.12728 44969 ft 492 kts 356°
2026-05-05 02:25 32.97218 -90.11939 44971 ft 493 kts 356°
2026-05-05 02:25 33.04047 -90.11150 44953 ft 494 kts 356°
2026-05-05 02:26 33.10901 -90.10355 44955 ft 495 kts 356°
2026-05-05 02:26 33.17776 -90.09557 44949 ft 496 kts 356°
2026-05-05 02:27 33.24615 -90.08764 44947 ft 498 kts 356°
2026-05-05 02:27 33.31516 -90.07959 44950 ft 498 kts 356°
2026-05-05 02:28 33.38424 -90.07156 44943 ft 500 kts 356°
2026-05-05 02:28 33.45343 -90.06345 44949 ft 499 kts 356°
2026-05-05 02:29 33.52254 -90.05539 44952 ft 499 kts 356°
2026-05-05 02:29 33.59194 -90.04726 44952 ft 501 kts 357°
2026-05-05 02:30 33.66134 -90.03911 44954 ft 501 kts 357°
2026-05-05 02:30 33.73079 -90.03095 44957 ft 502 kts 357°
2026-05-05 02:31 33.79994 -90.02281 44945 ft 503 kts 357°
2026-05-05 02:31 33.86967 -90.01459 44952 ft 503 kts 357°
2026-05-05 02:32 33.93941 -90.00635 44951 ft 503 kts 357°
2026-05-05 02:32 34.00911 -89.99811 44950 ft 503 kts 357°
2026-05-05 02:33 34.07897 -89.98983 44947 ft 503 kts 357°
2026-05-05 02:33 34.14870 -89.98156 44949 ft 503 kts 357°
2026-05-05 02:34 34.21841 -89.97327 44950 ft 503 kts 357°
2026-05-05 02:34 34.28812 -89.96497 44950 ft 504 kts 357°
2026-05-05 02:35 34.35795 -89.95664 44949 ft 504 kts 357°
2026-05-05 02:35 34.42732 -89.94835 44949 ft 504 kts 357°
2026-05-05 02:36 34.49722 -89.93999 44951 ft 504 kts 357°
2026-05-05 02:36 34.56706 -89.93162 44935 ft 505 kts 357°
2026-05-05 02:37 34.63721 -89.92320 44932 ft 506 kts 357°
2026-05-05 02:37 34.70698 -89.91480 44936 ft 507 kts 357°
2026-05-05 02:38 34.77731 -89.90632 44933 ft 507 kts 357°
2026-05-05 02:38 34.84763 -89.89784 44920 ft 508 kts 357°
2026-05-05 02:39 34.91796 -89.88934 44921 ft 508 kts 357°
2026-05-05 02:39 34.98836 -89.88081 44922 ft 508 kts 357°
2026-05-05 02:40 35.05889 -89.87226 44920 ft 510 kts 358°
2026-05-05 02:40 35.12960 -89.86424 44914 ft 509 kts 356°
2026-05-05 02:41 35.20023 -89.85756 44916 ft 509 kts 356°
2026-05-05 02:41 35.27097 -89.85078 44916 ft 510 kts 356°
2026-05-05 02:42 35.34135 -89.84412 44896 ft 511 kts 356°
2026-05-05 02:42 35.41228 -89.83731 44896 ft 511 kts 356°
2026-05-05 02:43 35.48333 -89.83053 44897 ft 512 kts 356°
2026-05-05 02:43 35.55449 -89.82370 44897 ft 512 kts 356°
2026-05-05 02:44 35.62562 -89.81688 44899 ft 512 kts 356°
2026-05-05 02:44 35.69633 -89.81008 44900 ft 513 kts 356°
2026-05-05 02:45 35.76766 -89.80321 44896 ft 514 kts 356°
2026-05-05 02:45 35.83895 -89.79633 44880 ft 514 kts 356°
2026-05-05 02:46 35.91030 -89.78943 44880 ft 514 kts 356°
2026-05-05 02:46 35.98119 -89.78256 44880 ft 514 kts 356°
2026-05-05 02:47 36.05246 -89.77565 44876 ft 514 kts 356°
2026-05-05 02:47 36.12378 -89.76871 44879 ft 514 kts 356°
2026-05-05 02:48 36.19525 -89.76175 44880 ft 514 kts 356°
2026-05-05 02:48 36.26670 -89.75479 44877 ft 514 kts 357°
2026-05-05 02:49 36.32607 -89.74898 44879 ft 515 kts 357°
2026-05-05 02:49 36.40898 -89.74086 44878 ft 514 kts 357°
2026-05-05 02:50 36.48031 -89.73387 44879 ft 514 kts 357°
2026-05-05 02:50 36.55166 -89.72685 44862 ft 514 kts 357°
2026-05-05 02:51 36.61096 -89.72102 44864 ft 515 kts 357°
2026-05-05 02:51 36.68252 -89.71396 44866 ft 515 kts 357°
2026-05-05 02:52 36.75396 -89.70690 44855 ft 515 kts 357°
2026-05-05 02:52 36.82537 -89.69984 44854 ft 515 kts 358°
2026-05-05 02:53 36.89701 -89.69273 44847 ft 516 kts 358°
2026-05-05 02:53 36.96857 -89.68562 44846 ft 516 kts 358°
2026-05-05 02:54 37.04012 -89.67850 44848 ft 516 kts 358°
2026-05-05 02:54 37.11175 -89.67135 44839 ft 516 kts 358°
2026-05-05 02:55 37.18297 -89.66424 44828 ft 516 kts 358°
2026-05-05 02:55 37.25458 -89.65707 44829 ft 517 kts 358°
2026-05-05 02:56 37.32648 -89.64986 44829 ft 517 kts 358°
2026-05-05 02:56 37.39833 -89.64263 44833 ft 517 kts 358°
2026-05-05 02:57 37.46972 -89.63546 44813 ft 517 kts 358°
2026-05-05 02:57 37.54146 -89.62859 44813 ft 517 kts 358°
2026-05-05 02:58 37.61321 -89.62156 44814 ft 517 kts 358°
2026-05-05 02:58 37.68505 -89.61456 44814 ft 517 kts 358°
2026-05-05 02:59 37.75685 -89.60755 44808 ft 518 kts 358°
2026-05-05 02:59 37.82884 -89.60049 44809 ft 518 kts 359°
2026-05-05 03:00 37.90026 -89.59348 44808 ft 518 kts 359°
2026-05-05 03:00 37.97218 -89.58641 44798 ft 518 kts 359°
2026-05-05 03:01 38.04416 -89.57932 44791 ft 519 kts 359°
2026-05-05 03:01 38.11622 -89.57220 44794 ft 519 kts 359°
2026-05-05 03:02 38.18829 -89.56507 44779 ft 519 kts 359°
2026-05-05 03:02 38.26040 -89.55793 44770 ft 519 kts 359°
2026-05-05 03:03 38.33251 -89.55076 44761 ft 519 kts 359°
2026-05-05 03:03 38.40420 -89.54363 44763 ft 520 kts 359°
2026-05-05 03:04 38.47646 -89.53642 44754 ft 520 kts 359°
2026-05-05 03:04 38.54862 -89.52922 44752 ft 520 kts 359°
2026-05-05 03:05 38.62079 -89.52199 44745 ft 520 kts 358°
2026-05-05 03:05 38.69307 -89.51474 44744 ft 521 kts 358°
2026-05-05 03:06 38.76486 -89.50753 44744 ft 521 kts 358°
2026-05-05 03:06 38.83728 -89.50023 44749 ft 521 kts 358°
2026-05-05 03:07 38.90971 -89.49292 44731 ft 522 kts 358°
2026-05-05 03:07 38.98217 -89.48559 44734 ft 522 kts 358°
2026-05-05 03:08 39.05463 -89.47825 44735 ft 522 kts 358°
2026-05-05 03:08 39.12673 -89.47093 44735 ft 523 kts 358°
2026-05-05 03:09 39.19933 -89.46354 44727 ft 523 kts 358°
2026-05-05 03:09 39.27161 -89.45613 44715 ft 513 kts 358°
2026-05-05 03:10 39.34245 -89.44894 44706 ft 510 kts 358°
2026-05-05 03:10 39.41328 -89.44170 44704 ft 514 kts 358°
2026-05-05 03:11 39.48450 -89.43435 44622 ft 515 kts 358°
2026-05-05 03:11 39.52056 -89.43072 43857 ft 521 kts 358°
2026-05-05 03:11 39.55649 -89.42698 43176 ft 515 kts 358°
2026-05-05 03:11 39.59198 -89.42324 42499 ft 510 kts 358°
2026-05-05 03:12 39.62725 -89.41963 41824 ft 506 kts 358°
2026-05-05 03:12 39.66232 -89.41609 41155 ft 505 kts 359°
2026-05-05 03:12 39.69743 -89.41248 40483 ft 505 kts 359°
2026-05-05 03:12 39.73242 -89.40881 39812 ft 504 kts 359°
2026-05-05 03:13 39.76744 -89.40516 39146 ft 504 kts 359°
2026-05-05 03:13 39.80237 -89.40158 38470 ft 503 kts 359°
2026-05-05 03:13 39.83722 -89.39798 37801 ft 503 kts 359°
2026-05-05 03:13 39.87215 -89.39434 37130 ft 503 kts 359°
2026-05-05 03:14 39.90708 -89.39070 36458 ft 503 kts 359°
2026-05-05 03:14 39.94153 -89.38713 35795 ft 504 kts 360°
2026-05-05 03:14 39.97664 -89.38350 35120 ft 509 kts
2026-05-05 03:14 40.01217 -89.37980 34438 ft 515 kts
2026-05-05 03:15 40.04814 -89.37603 33748 ft 522 kts
2026-05-05 03:15 40.08439 -89.37267 33040 ft 520 kts 359°
2026-05-05 03:15 40.12068 -89.37144 32353 ft 522 kts 358°
2026-05-05 03:15 40.15705 -89.36981 31657 ft 524 kts 358°
2026-05-05 03:16 40.19358 -89.36797 30958 ft 525 kts 358°
2026-05-05 03:16 40.23014 -89.36644 30259 ft 526 kts 358°
2026-05-05 03:16 40.26683 -89.36513 29556 ft 529 kts 358°
2026-05-05 03:16 40.30387 -89.36363 28843 ft 532 kts 358°
2026-05-05 03:17 40.34090 -89.36192 28143 ft 525 kts 358°
2026-05-05 03:17 40.37714 -89.36027 27451 ft 530 kts 358°
2026-05-05 03:17 40.41349 -89.35881 26755 ft 524 kts 358°
2026-05-05 03:17 40.44969 -89.35739 26054 ft 514 kts 358°
2026-05-05 03:18 40.48570 -89.35585 25377 ft 513 kts 358°
2026-05-05 03:18 40.52143 -89.35425 24682 ft 518 kts 358°
2026-05-05 03:18 40.55687 -89.35274 24003 ft 510 kts 357°
2026-05-05 03:18 40.59214 -89.35131 23326 ft 500 kts 357°
2026-05-05 03:19 40.66131 -89.34834 22010 ft 495 kts 357°
2026-05-05 03:19 40.69541 -89.34686 21362 ft 495 kts 357°
2026-05-05 03:19 40.72915 -89.34546 20706 ft 485 kts 357°
2026-05-05 03:20 40.76276 -89.34406 20060 ft 474 kts 357°
2026-05-05 03:20 40.79606 -89.34261 19424 ft 469 kts 357°
2026-05-05 03:20 40.82885 -89.34119 18790 ft 471 kts 357°
2026-05-05 03:20 40.86124 -89.33982 18169 ft 471 kts 356°
2026-05-05 03:21 40.89327 -89.33848 17554 ft 462 kts 356°
2026-05-05 03:21 40.92510 -89.33710 16942 ft 452 kts 356°
2026-05-05 03:21 40.95668 -89.33573 16330 ft 444 kts 356°
2026-05-05 03:21 40.98794 -89.33441 15732 ft 446 kts 356°
2026-05-05 03:22 41.01829 -89.33307 15149 ft 448 kts 356°
2026-05-05 03:22 41.04883 -89.33175 14571 ft 438 kts 356°
2026-05-05 03:22 41.07908 -89.33049 13983 ft 428 kts 356°
2026-05-05 03:22 41.10916 -89.32921 13412 ft 424 kts 356°
2026-05-05 03:23 41.13891 -89.32789 12840 ft 427 kts 356°
2026-05-05 03:23 41.16831 -89.32662 12287 ft 428 kts 356°
2026-05-05 03:23 41.19734 -89.32539 11732 ft 420 kts 356°
2026-05-05 03:23 41.22620 -89.32414 11176 ft 412 kts 357°
2026-05-05 03:24 41.25501 -89.32288 10624 ft 406 kts 357°
2026-05-05 03:24 41.28370 -89.32164 10084 ft 404 kts 358°
2026-05-05 03:24 41.31184 -89.32047 9548 ft 407 kts 358°
2026-05-05 03:24 41.34020 -89.31923 9015 ft 409 kts 358°
2026-05-05 03:25 41.36837 -89.31800 8467 ft 409 kts 358°
2026-05-05 03:25 41.39636 -89.31672 7930 ft 405 kts 359°
2026-05-05 03:25 41.42383 -89.31551 7402 ft 385 kts 358°
2026-05-05 03:25 41.44936 -89.31435 6917 ft 349 kts 358°
2026-05-05 03:26 41.47264 -89.31332 6458 ft 321 kts 358°
2026-05-05 03:26 41.49420 -89.31242 6076 ft 297 kts 358°
2026-05-05 03:26 41.51505 -89.31163 5830 ft 302 kts 358°
2026-05-05 03:26 41.53568 -89.31072 5546 ft 301 kts 358°
2026-05-05 03:27 41.55586 -89.30649 4980 ft 305 kts 17°
2026-05-05 03:27 41.57339 -89.29090 4600 ft 308 kts 39°
2026-05-05 03:27 41.58575 -89.26779 4201 ft 302 kts 62°
2026-05-05 03:27 41.59091 -89.23986 3795 ft 310 kts 85°
2026-05-05 03:28 41.58781 -89.21140 3407 ft 310 kts 108°
2026-05-05 03:28 41.57716 -89.18688 3007 ft 311 kts 131°
2026-05-05 03:28 41.56108 -89.16889 2636 ft 303 kts 146°
2026-05-05 03:28 41.54278 -89.15660 2240 ft 294 kts 167°
2026-05-05 03:29 41.52293 -89.15441 2321 ft 288 kts 181°
2026-05-05 03:29 41.50342 -89.15448 2317 ft 284 kts 182°
2026-05-05 03:29 41.48290 -89.15455 2314 ft 284 kts 182°
2026-05-05 03:29 41.46320 -89.15425 2259 ft 283 kts 181°
2026-05-05 03:30 41.44318 -89.15393 1938 ft 282 kts 181°
2026-05-05 03:30 41.42321 -89.15376 1573 ft 281 kts 181°
2026-05-05 03:30 41.40335 -89.15360 1195 ft 281 kts 181°
2026-05-05 03:30 41.38373 -89.15342 995 ft 275 kts 181°
2026-05-05 03:31 41.36422 -89.15323 1004 ft 277 kts 181°
2026-05-05 03:31 41.34472 -89.15305 1008 ft 279 kts 181°
2026-05-05 03:31 41.32525 -89.15287 1011 ft 282 kts 181°
2026-05-05 03:31 41.30574 -89.15270 1007 ft 283 kts 181°
2026-05-05 03:32 41.28629 -89.15251 1009 ft 284 kts 181°
2026-05-05 03:32 41.26678 -89.15233 1009 ft 286 kts 181°
2026-05-05 03:32 41.24737 -89.15216 1011 ft 287 kts 181°
2026-05-05 03:32 41.22816 -89.15198 1012 ft 285 kts 181°
2026-05-05 03:33 41.20868 -89.15180 1006 ft 281 kts 181°
2026-05-05 03:33 41.18917 -89.15161 1005 ft 278 kts 181°
2026-05-05 03:33 41.16969 -89.15144 1007 ft 274 kts 181°
2026-05-05 03:33 41.15011 -89.15127 1005 ft 275 kts 181°
2026-05-05 03:34 41.13051 -89.15108 1009 ft 276 kts 181°
2026-05-05 03:34 41.11090 -89.15090 1008 ft 279 kts 181°
2026-05-05 03:34 41.09131 -89.15072 1010 ft 283 kts 181°
2026-05-05 03:34 41.07175 -89.15054 1011 ft 286 kts 181°
2026-05-05 03:35 41.05216 -89.15038 1008 ft 288 kts 181°
2026-05-05 03:35 41.03286 -89.15019 1008 ft 288 kts 181°
2026-05-05 03:35 41.01329 -89.15002 1005 ft 286 kts 181°
2026-05-05 03:35 40.99366 -89.14983 1006 ft 283 kts 180°
2026-05-05 03:36 40.97403 -89.14965 1005 ft 280 kts 180°
2026-05-05 03:36 40.95438 -89.14948 1005 ft 276 kts 180°
2026-05-05 03:36 40.93472 -89.14930 999 ft 276 kts 180°
2026-05-05 03:36 40.91506 -89.14911 1001 ft 276 kts 180°
2026-05-05 03:37 40.89538 -89.14893 1005 ft 278 kts 180°
2026-05-05 03:37 40.87569 -89.14877 1006 ft 281 kts 181°
2026-05-05 03:37 40.85602 -89.14859 1006 ft 284 kts 181°
2026-05-05 03:37 40.83638 -89.14839 1012 ft 288 kts 181°
2026-05-05 03:38 40.81668 -89.14822 1010 ft 289 kts 181°
2026-05-05 03:38 40.79722 -89.14805 1006 ft 290 kts 181°
2026-05-05 03:38 40.77753 -89.14788 1006 ft 287 kts 180°
2026-05-05 03:38 40.75776 -89.14769 1007 ft 286 kts 180°
2026-05-05 03:39 40.73810 -89.14751 1011 ft 282 kts 180°
2026-05-05 03:39 40.71836 -89.14733 1020 ft 279 kts 181°
2026-05-05 03:39 40.69864 -89.14717 1019 ft 277 kts 181°
2026-05-05 03:39 40.67889 -89.14700 1014 ft 277 kts 181°
2026-05-05 03:40 40.66578 -89.14688 1021 ft 288 kts 180°
2026-05-05 03:40 40.64597 -89.14665 1036 ft 291 kts 180°
2026-05-05 03:40 40.62622 -89.14647 1030 ft 291 kts 180°
2026-05-05 03:40 40.60642 -89.14632 1032 ft 291 kts 180°
2026-05-05 03:41 40.58655 -89.14615 1035 ft 288 kts 180°
2026-05-05 03:41 40.56673 -89.14597 1036 ft 285 kts 180°
2026-05-05 03:41 40.54685 -89.14579 1038 ft 282 kts 180°
2026-05-05 03:41 40.52701 -89.14561 1036 ft 280 kts 180°
2026-05-05 03:42 40.50712 -89.14542 1035 ft 279 kts 180°
2026-05-05 03:42 40.48720 -89.14526 1034 ft 279 kts 180°
2026-05-05 03:42 40.46733 -89.14508 1036 ft 282 kts 180°
2026-05-05 03:42 40.44741 -89.14491 1039 ft 284 kts 180°
2026-05-05 03:43 40.42782 -89.14472 1041 ft 287 kts 180°
2026-05-05 03:43 40.40807 -89.14454 1040 ft 290 kts 180°
2026-05-05 03:43 40.38832 -89.14437 1041 ft 290 kts 180°
2026-05-05 03:43 40.36861 -89.14419 1034 ft 290 kts 180°
2026-05-05 03:44 40.34885 -89.14399 1032 ft 289 kts 179°
2026-05-05 03:44 40.32912 -89.14383 1029 ft 283 kts 180°
2026-05-05 03:44 40.30934 -89.14367 1028 ft 280 kts 179°
2026-05-05 03:44 40.28953 -89.14350 1031 ft 278 kts 179°
2026-05-05 03:45 40.26972 -89.14331 1025 ft 278 kts 179°
2026-05-05 03:45 40.24994 -89.14314 1015 ft 279 kts 179°
2026-05-05 03:45 40.23011 -89.14300 1015 ft 281 kts 178°
2026-05-05 03:45 40.21028 -89.14281 1011 ft 285 kts 178°
2026-05-05 03:46 40.19064 -89.14258 1011 ft 290 kts 178°
2026-05-05 03:46 40.17082 -89.14237 1018 ft 290 kts 178°
2026-05-05 03:46 40.15096 -89.14224 1017 ft 292 kts 178°
2026-05-05 03:46 40.13118 -89.14212 1021 ft 291 kts 178°
2026-05-05 03:47 40.11170 -89.14189 1015 ft 289 kts 178°
2026-05-05 03:47 40.09184 -89.14166 1013 ft 286 kts 178°
2026-05-05 03:47 40.07259 -89.14156 999 ft 261 kts 178°
2026-05-05 03:47 40.05434 -89.14406 952 ft 284 kts 198°
2026-05-05 03:48 40.03929 -89.15913 1398 ft 273 kts 234°
2026-05-05 03:48 40.03485 -89.18267 2657 ft 265 kts 275°
2026-05-05 03:48 40.04189 -89.20454 3963 ft 269 kts 308°
2026-05-05 03:48 40.05736 -89.21829 4830 ft 282 kts 343°
2026-05-05 03:49 40.07686 -89.22320 5815 ft 291 kts 355°
2026-05-05 03:49 40.09755 -89.22615 6751 ft 307 kts 355°
2026-05-05 03:49 40.11922 -89.22733 7873 ft 314 kts
2026-05-05 03:49 40.14068 -89.22480 9101 ft 303 kts
2026-05-05 03:50 40.16194 -89.22170 9697 ft 309 kts
2026-05-05 03:50 40.18300 -89.22010 9687 ft 294 kts 355°
2026-05-05 03:50 40.20422 -89.21940 9698 ft 322 kts 355°
2026-05-05 03:50 40.22791 -89.21822 9725 ft 351 kts 357°
2026-05-05 03:51 40.25221 -89.21614 9704 ft 351 kts 358°
2026-05-05 03:51 40.27681 -89.21410 9720 ft 355 kts 358°
2026-05-05 03:51 40.30150 -89.21234 9721 ft 354 kts 357°
2026-05-05 03:51 40.32576 -89.21068 9716 ft 354 kts 357°
2026-05-05 03:52 40.35043 -89.20896 9716 ft 355 kts 357°
2026-05-05 03:52 40.37504 -89.20721 9710 ft 354 kts 357°
2026-05-05 03:52 40.39970 -89.20541 9721 ft 353 kts 357°
2026-05-05 03:52 40.42424 -89.20377 9719 ft 354 kts 357°
2026-05-05 03:53 40.44888 -89.20208 9729 ft 356 kts 357°
2026-05-05 03:53 40.47351 -89.20021 9725 ft 355 kts 358°
2026-05-05 03:53 40.49812 -89.19833 9725 ft 354 kts 358°
2026-05-05 03:53 40.52276 -89.19667 9724 ft 355 kts 357°
2026-05-05 03:54 40.54738 -89.19499 9721 ft 353 kts 357°
2026-05-05 03:54 40.57195 -89.19322 9723 ft 355 kts 358°
2026-05-05 03:54 40.59657 -89.19142 9736 ft 355 kts 358°
2026-05-05 03:54 40.62122 -89.18967 9737 ft 354 kts 358°
2026-05-05 03:55 40.64584 -89.18794 9737 ft 355 kts 358°
2026-05-05 03:55 40.66971 -89.18615 9732 ft 328 kts 358°
2026-05-05 03:55 40.69141 -89.18446 9708 ft 296 kts 357°
2026-05-05 03:55 40.71093 -89.18312 9708 ft 279 kts 356°
2026-05-05 03:56 40.73041 -89.18191 9712 ft 283 kts 356°
2026-05-05 03:56 40.75017 -89.18054 9715 ft 285 kts 356°
2026-05-05 03:56 40.77042 -89.17907 9596 ft 299 kts 357°
2026-05-05 03:56 40.79100 -89.17753 9455 ft 297 kts 357°
2026-05-05 03:57 40.81177 -89.17603 9079 ft 298 kts 357°
2026-05-05 03:57 40.83243 -89.17462 8683 ft 296 kts 357°
2026-05-05 03:57 40.85282 -89.17309 8288 ft 291 kts 357°
2026-05-05 03:57 40.87292 -89.17160 7903 ft 288 kts 357°
2026-05-05 03:58 40.89291 -89.17020 7522 ft 286 kts 357°
2026-05-05 03:58 40.91280 -89.16878 7139 ft 285 kts 357°
2026-05-05 03:58 40.93251 -89.16735 6767 ft 283 kts 357°
2026-05-05 03:58 40.95213 -89.16593 6395 ft 282 kts 357°
2026-05-05 03:59 40.97160 -89.16454 6016 ft 279 kts 357°
2026-05-05 03:59 40.99067 -89.16316 5651 ft 277 kts 357°
2026-05-05 03:59 41.00988 -89.16177 5284 ft 276 kts 358°
2026-05-05 03:59 41.02907 -89.16039 4915 ft 275 kts 358°
2026-05-05 04:00 41.04804 -89.15901 4556 ft 273 kts 358°
2026-05-05 04:00 41.06697 -89.15765 4190 ft 272 kts 359°
2026-05-05 04:00 41.08585 -89.15629 3828 ft 271 kts 359°
2026-05-05 04:00 41.10459 -89.15494 3469 ft 269 kts 359°
2026-05-05 04:01 41.12329 -89.15358 3113 ft 268 kts 359°
2026-05-05 04:01 41.14191 -89.15222 2756 ft 266 kts
2026-05-05 04:01 41.16017 -89.15128 2469 ft 255 kts 356°
2026-05-05 04:01 41.17743 -89.15183 2485 ft 247 kts 357°
2026-05-05 04:02 41.19480 -89.15163 2485 ft 252 kts 358°
2026-05-05 04:02 41.21241 -89.15160 2493 ft 254 kts 357°
2026-05-05 04:02 41.23017 -89.15185 2493 ft 261 kts 356°
2026-05-05 04:02 41.24831 -89.15211 2376 ft 261 kts 357°
2026-05-05 04:03 41.26649 -89.15226 2137 ft 258 kts 357°
2026-05-05 04:03 41.28414 -89.15241 1853 ft 242 kts 358°
2026-05-05 04:03 41.29966 -89.15252 1534 ft 208 kts 358°
2026-05-05 04:03 41.31327 -89.15265 1293 ft 179 kts 358°
2026-05-05 04:04 41.32520 -89.15280 1096 ft 169 kts 357°
2026-05-05 04:04 41.33628 -89.15283 846 ft 147 kts 357°
2026-05-05 04:04 41.34566 -89.15297 671 ft 123 kts 356°
2026-05-05 04:04 41.35290 -89.15316 653 ft 73 kts 359°
2026-05-05 04:05 41.35553 -89.15322 655 ft 3 kts 357°
2026-05-05 04:05 41.35575 -89.15314 656 ft 8 kts 35°
2026-05-05 04:05 41.35586 -89.15205 654 ft 16 kts 101°
2026-05-05 04:05 41.35485 -89.15165 652 ft 32 kts 179°
2026-05-05 04:06 41.35366 -89.15136 651 ft 9 kts 92°
2026-05-05 04:06 41.35337 -89.15111 651 ft 0 kts 176°